Regional Weather Roundup
Issued by NWS

Home | Current Version | Previous Version | Text Only | Print | Product List | Glossary On
Versions: 1 2 3 4 5 6 7 8 9 10 11 12 13 14 15 16 17 18 19 20 21 22 23 24 25 26 27 28 29 30 31 32 33 34 35 36 37 38 39 40 41 42 43 44 45 46 47 48 49 50
338
ASUS44 KLIX 011510
RWRLA
LOUISIANA WEATHER ROUNDUP
NATIONAL WEATHER SERVICE NEW ORLEANS LA
1000 AM CDT FRI AUG 01 2014

NOTE: "FAIR" INDICATES FEW OR NO CLOUDS BELOW 12,000 FEET WITH NO
      SIGNIFICANT WEATHER AND/OR OBSTRUCTIONS TO VISIBILITY.
      SKY/WX - SKY CONDITION AND SIGNIFICANT WEATHER.
      TMP - AIR TEMPERATURE.    DP   - DEWPOINT TEMPERATURE.
      RH  - RELATIVE HUMIDITY.  PRES - PRESSURE.
      HX  - HEAT INDEX.         WCI  - WIND CHILL INDEX.

*  THESE STATIONS ARE NOT NWS OR FAA STATIONS AND ARE NOT UNDER
   NWS QUALITY CONTROL.

LAZ040-048-061>063-065-066-069-011600-
SOUTHEAST LOUISIANA

CITY           SKY/WX    TMP DP  RH WIND       PRES   REMARKS
N.O. AUDUBON     N/A     87  72  60 MISG        N/A
N.O. INTL ARPT PTSUNNY   85  67  54 SE5       30.01S
N.O. LAKEFRONT MOSUNNY   82  70  66 E6        30.02R
N.O. DOWNTOWN* FAIR      84  70  61 SE8       30.02S
SLIDELL        PTSUNNY   79  68  69 E3        30.02R
BATON ROUGE    CLOUDY    76  72  87 E5        30.01R
BOOTHVILLE     CLOUDY    81  68  64 CALM      30.02S
BELLE CHASSE   PTSUNNY   85  71  63 E6        30.02R
BOGALUSA*      FAIR      77  68  74 CALM      30.05R
GALLIANO*      NOT AVBL
NEW ROADS*     RAIN      73  72  94 CALM      30.00F
GONZALES*      LGT RAIN  82  73  76 S5        30.00S
HAMMOND*       PTSUNNY   81  66  61 E7        30.03S
HOUMA*         PTSUNNY   82  72  69 CALM      30.02R
PORT FOURCHON* SUNNY     82  68  61 SE6       30.03F

$$

LAZ041-044-053-054-011600-
SOUTHWEST LOUISIANA

CITY           SKY/WX    TMP DP  RH WIND       PRES   REMARKS
LAKE CHARLES   CLOUDY    76  73  91 SW6       29.98S
LAFAYETTE      CLOUDY    78  75  90 S7        30.00R
PATTERSON      CLOUDY    79  75  89 SE3       30.04R
SALT POINT       N/A     84  77  79 VRB3      29.99S
NEW IBERIA     RAIN      76  74  93 S5        30.00F
CHENAULT AIRPK MOSUNNY   75  72  88 SW6       29.99S

$$

LAZ027-028-011600-
CENTRAL LOUISIANA

CITY           SKY/WX    TMP DP  RH WIND       PRES   REMARKS
FORT POLK      CLOUDY    76  74  93 W6        29.97S
ALEXANDRIA INT CLOUDY    73  72  96 E6        29.96S FOG
ALEXANDRIA     RAIN      72  69  90 NE6       29.99S FOG

$$

LAZ001-002-011600-
NORTHWEST LOUISIANA

CITY           SKY/WX    TMP DP  RH WIND       PRES   REMARKS
SHREVEPORT     CLOUDY    70  68  93 NE7       29.99S FOG
BARKSDALE AFB  CLOUDY    69  68  97 NE5       29.99S
DTN SHREVEPORT CLOUDY    68  67  96 NE6       30.00R FOG

$$

LAZ014-016-011600-
NORTHEAST LOUISIANA

CITY           SKY/WX    TMP DP  RH WIND       PRES   REMARKS
MONROE         RAIN      70  68  94 E8        30.02S VSB 1
TALLULAH       RAIN      70  66  87 E6        30.02F

$$




USA.gov is the U.S. government's official web portal to all federal, state and local government web resources and services.